This is the latest recevied weather packets stored in our database for station/object WV8BRW. If no packets are shown the sender has not sent any weather packets the latest 10 day(s).
| Time | Temp. | Humidity | Pressure | Rain* | Wind** | Luminosity | Snow |
|---|---|---|---|---|---|---|---|
| 1778080527 | 12.22° C | 99% | 1009.3 hPa | 0 mm | - | 167 W/m² | - |
| 1778080224 | 12.22° C | 99% | 1009.3 hPa | 0 mm | - | 170 W/m² | - |
| 1778079920 | 11.67° C | 99% | 1009.1 hPa | 0 mm | - | 124 W/m² | - |
| 1778079617 | 11.67° C | 99% | 1008.9 hPa | 0 mm | - | 110 W/m² | - |
| 1778079314 | 11.67° C | 99% | 1009.2 hPa | 0 mm | - | 85 W/m² | - |
| 1778079011 | 11.67° C | 99% | 1008.8 hPa | 0 mm | - | 99 W/m² | - |
| 1778078708 | 11.67° C | 99% | 1008.6 hPa | 0 mm | - | 114 W/m² | - |
| 1778078406 | 11.67° C | 99% | 1008.6 hPa | 0 mm | - | 108 W/m² | - |
| 1778078103 | 11.67° C | 99% | 1008.2 hPa | 0 mm | - | 149 W/m² | - |
| 1778077801 | 12.22° C | 99% | 1008.5 hPa | 0 mm | - | 115 W/m² | - |
| 1778077498 | 12.78° C | 99% | 1008.4 hPa | 1.27 mm | - | 103 W/m² | - |
| 1778077196 | 13.33° C | 99% | 1008.2 hPa | 3.05 mm | - | 49 W/m² | - |
| 1778076894 | 15.56° C | 99% | 1008.1 hPa | 1.78 mm | - | 29 W/m² | - |
| 1778076593 | 15.56° C | 99% | 1007.6 hPa | 0 mm | - | 75 W/m² | - |
| 1778076289 | 15.56° C | 99% | 1007.9 hPa | 0 mm | - | 90 W/m² | - |
| 1778075986 | 15.56° C | 99% | 1007.8 hPa | 0 mm | - | 94 W/m² | - |
| 1778075683 | 15.56° C | 99% | 1007.8 hPa | 0 mm | - | 58 W/m² | - |
| 1778075379 | 15.56° C | 99% | 1007.7 hPa | 1.27 mm | - | 62 W/m² | - |
| 1778075075 | 15.56° C | 99% | 1007.7 hPa | 1.27 mm | - | 69 W/m² | - |
| 1778074772 | 15.56° C | 99% | 1007.6 hPa | 0 mm | - | 72 W/m² | - |
| 1778074469 | 15.56° C | 99% | 1007.5 hPa | 0 mm | - | 69 W/m² | - |
| 1778074166 | 15.56° C | 99% | 1007.2 hPa | 0 mm | - | 61 W/m² | - |
| 1778073863 | 15.56° C | 99% | 1007.2 hPa | 1.78 mm | - | 61 W/m² | - |
| 1778073561 | 15.56° C | 99% | 1006.9 hPa | 1.78 mm | - | 56 W/m² | - |
| 1778073257 | 15.56° C | 99% | 1007.1 hPa | 0 mm | - | 45 W/m² | - |
* Rain latest hour (hover to see other rain measurements)
** Current wind speed in m/s (hover to see current wind gust speed)